Flag for Germany Weather past 2 weeks in Freiberg, Saxony, Germany

Now
36 °F

Clear.


Feels Like: 31 °F
Forecast: 31 / 44 °F
Wind: 6 mph from South

Location: Dresden-Klotzsche

Current Time: Feb 28, 2015 at 8:53:31 PM

Latest Report: Feb 28, 2015 at 8:20 PM


Visibility: 10 mi

Pressure: 30.07 "Hg

Humidity: 70%

Dew point: 27 °F

Location of FreibergLocation

Historic Weather in Freiberg — Graph

°F

Freiberg temperature yesterday

Maximum temperature yesterday: 48 °F (at 1:20 PM)
Minimum temperature yesterday: 28 °F (at 5:20 AM)
Average temperature yesterday: 39 °F

Past Weeks' High & Low Weather Summary

 TemperatureHumidityPressure
High52 °F (Feb 20, 2:20 PM)100% (Feb 17, 5:50 PM)30.72 "Hg (Feb 17, 5:50 PM)
Low25 °F (Feb 20, 3:20 AM)34% (Feb 26, 2:20 PM)29.45 "Hg (Feb 21, 1:20 PM)
Average37 °F76%30.02 "Hg
* Reported Feb 13 7:20 PM — Feb 28 7:50 PM, Freiberg, Weather by CustomWeather, © 2015

Note: Actual official high and low records may vary slightly from our data, if they occured in-between our weather recording intervals... More about our weather records

Advertising

Freiberg weather history for previous 24 hours

 ConditionsComfort  
Time TempWeatherWind HumidityBarometerVisibility
7:50 PM
Sat, Feb 28
34 °FClear.7 mph75%30.07 "Hg10 mi
7:20 PM37 °FClear.3 mph65%30.07 "Hg10 mi
6:50 PM37 °FClear.5 mph70%30.07 "Hg10 mi
6:20 PM39 °FClear.2 mph65%30.07 "Hg10 mi
5:50 PM39 °FPassing clouds.2 mph65%30.07 "HgN/A
5:20 PM39 °FPassing clouds.2 mph65%30.07 "HgN/A
4:50 PM39 °FPassing clouds.5 mph65%30.07 "HgN/A
4:20 PM41 °FScattered clouds.6 mph61%30.09 "HgN/A
3:50 PM41 °FScattered clouds.3 mph61%30.09 "HgN/A
3:20 PM41 °FScattered clouds.8 mph61%30.09 "HgN/A
2:50 PM41 °FPartly sunny.8 mph61%30.09 "HgN/A
2:20 PM39 °FBroken clouds.8 mph70%30.09 "HgN/A
1:50 PM39 °FPartly sunny.6 mph70%30.09 "HgN/A
1:20 PM39 °FPartly sunny.7 mph70%30.12 "HgN/A
12:50 PM39 °FPartly sunny.7 mph70%30.12 "HgN/A
12:20 PM39 °FPartly sunny.6 mph75%30.12 "HgN/A
11:50 AM37 °FBroken clouds.6 mph81%30.12 "HgN/A
11:20 AM37 °FPartly sunny.6 mph81%30.12 "HgN/A
10:50 AM37 °FMostly cloudy.6 mph87%30.12 "HgN/A
10:20 AM36 °FLow clouds.6 mph93%30.12 "HgN/A
9:50 AM36 °FLight rain. Low clouds.5 mph93%30.12 "HgN/A
9:20 AM36 °FLight rain. Low clouds.5 mph93%30.12 "Hg4 mi
8:50 AM36 °FLow clouds.6 mph93%30.12 "Hg4 mi
8:20 AM36 °FLight rain. Low clouds.6 mph93%30.12 "Hg4 mi
7:50 AM36 °FLight rain. Low clouds.3 mph93%30.12 "Hg3 mi
7:20 AM36 °FDrizzle. Low clouds.3 mph93%30.09 "Hg4 mi
6:50 AM36 °FDrizzle. Low clouds.6 mph93%30.09 "Hg4 mi
6:20 AM36 °FLow clouds.7 mph93%30.09 "HgN/A
5:50 AM36 °FPassing clouds.7 mph93%30.07 "HgN/A
5:20 AM36 °FPassing clouds.6 mph93%30.07 "HgN/A
4:20 AM36 °FPartly cloudy.5 mph93%30.07 "Hg4 mi
3:50 AM36 °FLight rain. Partly cloudy.6 mph93%30.07 "Hg4 mi
3:20 AM36 °FLight rain. Passing clouds.6 mph93%30.04 "Hg4 mi
2:50 AM36 °FDrizzle. Fog.5 mph93%30.04 "Hg3 mi
2:20 AM36 °FFog.7 mph93%30.04 "Hg3 mi
1:50 AM36 °FFog.5 mph93%30.04 "Hg2 mi
1:20 AM36 °FFog.6 mph93%30.04 "Hg2 mi
12:50 AM36 °FFog.8 mph93%30.04 "Hg2 mi
12:20 AM34 °FPartly cloudy.6 mph93%30.04 "Hg5 mi
11:50 PM
Fri, Feb 27
34 °FClear.7 mph81%30.04 "Hg10 mi
11:20 PM34 °FClear.7 mph81%30.01 "Hg10 mi
10:50 PM36 °FClear.6 mph75%30.01 "Hg10 mi
10:20 PM37 °FClear.6 mph75%30.01 "Hg10 mi
9:50 PM36 °FClear.5 mph81%29.98 "Hg10 mi
9:20 PM37 °FClear.6 mph75%29.98 "Hg10 mi
8:50 PM37 °FClear.2 mph75%29.98 "Hg10 mi
8:20 PM39 °FClear.2 mph70%29.95 "Hg10 mi
Weather by CustomWeather, © 2015

See weather overviewHow to use our weather pages